When you browse on this site, cookies collect data to enhance your experience and personalize the content and advertising you see.
Visit our Privacy Policy to learn more. By continuing to use the site, you agree to this use of cookies and data.
  • In Lithuania
  • List of Countries
  • For 7 days
  • Water Temperature
  • Satellite Maps
  • Weather Map
  • Weather Widgets
  • user-avatar
    Login

    Hourly Weather San Fernando de Apure

    Today, 21 February, Thursday

    Time Temperature Precipitation Wind Pressure Humidity
    00:00 +31°C° 0 mm 3 mps 753 mmHg 39%
    01:00 +30°C° 0 mm 3 mps 753 mmHg 43%
    02:00 +29°C° 0 mm 3 mps 754 mmHg 47%
    03:00 +29°C° 0 mm 4 mps 754 mmHg 50%
    04:00 +28°C° 0 mm 4 mps 754 mmHg 54%
    05:00 +28°C° 0 mm 4 mps 754 mmHg 57%
    06:00 +28°C° 0 mm 4 mps 754 mmHg 57%
    07:00 +28°C° 0 mm 5 mps 755 mmHg 57%
    08:00 +29°C° 0 mm 5 mps 755 mmHg 57%
    09:00 +30°C° 0 mm 5 mps 755 mmHg 53%
    10:00 +33°C° 0 mm 5 mps 756 mmHg 48%
    11:00 +35°C° 0 mm 5 mps 756 mmHg 43%
    12:00 +36°C° 0 mm 5 mps 755 mmHg 39%
    13:00 +39°C° 0 mm 5 mps 754 mmHg 36%
    14:00 +40°C° 0 mm 5 mps 753 mmHg 33%
    15:00 +40°C° 0 mm 5 mps 752 mmHg 33%
    16:00 +39°C° 0 mm 5 mps 752 mmHg 33%
    17:00 +39°C° 0 mm 5 mps 751 mmHg 33%
    18:00 +37°C° 0 mm 4 mps 751 mmHg 36%
    19:00 +35°C° 0 mm 4 mps 752 mmHg 39%
    20:00 +34°C° 0 mm 3 mps 752 mmHg 41%
    21:00 +33°C° 0 mm 3 mps 753 mmHg 43%
    22:00 +33°C° 0 mm 3 mps 753 mmHg 44%
    23:00 +31°C° 0 mm 3 mps 754 mmHg 45%

    Tomorrow, 22 February, Friday

    Time Temperature Precipitation Wind Pressure Humidity
    00:00 +31°C° 0 mm 3 mps 754 mmHg 49%
    01:00 +30°C° 0 mm 4 mps 754 mmHg 54%
    02:00 +29°C° 0 mm 4 mps 754 mmHg 59%
    03:00 +29°C° 0 mm 4 mps 754 mmHg 60%
    04:00 +28°C° 0 mm 4 mps 754 mmHg 62%
    05:00 +28°C° 0 mm 4 mps 754 mmHg 64%
    06:00 +28°C° 0 mm 4 mps 755 mmHg 62%
    07:00 +28°C° 0 mm 5 mps 755 mmHg 61%
    08:00 +29°C° 0 mm 5 mps 756 mmHg 59%
    09:00 +30°C° 0 mm 5 mps 756 mmHg 52%
    10:00 +33°C° 0 mm 6 mps 756 mmHg 45%
    11:00 +35°C° 0 mm 6 mps 756 mmHg 38%
    12:00 +36°C° 0 mm 6 mps 755 mmHg 35%
    13:00 +39°C° 0 mm 5 mps 754 mmHg 32%
    14:00 +40°C° 0 mm 5 mps 753 mmHg 30%
    15:00 +40°C° 0 mm 5 mps 752 mmHg 29%
    16:00 +40°C° 0 mm 5 mps 751 mmHg 28%
    17:00 +40°C° 0 mm 4 mps 751 mmHg 27%
    18:00 +37°C° 0 mm 4 mps 751 mmHg 30%
    19:00 +36°C° 0 mm 3 mps 752 mmHg 32%
    20:00 +34°C° 0 mm 2 mps 752 mmHg 35%
    21:00 +34°C° 0 mm 3 mps 753 mmHg 36%
    22:00 +33°C° 0 mm 4 mps 754 mmHg 38%
    23:00 +33°C° 0 mm 4 mps 754 mmHg 39%

    Day after tomorrow, 23 February, Saturday

    Time Temperature Precipitation Wind Pressure Humidity
    00:00 +32°C° 0 mm 4 mps 754 mmHg 45%
    01:00 +30°C° 0 mm 4 mps 754 mmHg 50%
    02:00 +29°C° 0 mm 4 mps 754 mmHg 55%
    03:00 +29°C° 0 mm 4 mps 754 mmHg 56%
    04:00 +29°C° 0 mm 4 mps 754 mmHg 57%
    05:00 +28°C° 0 mm 4 mps 754 mmHg 58%
    06:00 +28°C° 0 mm 5 mps 754 mmHg 58%
    07:00 +28°C° 0 mm 5 mps 755 mmHg 59%
    08:00 +28°C° 0 mm 5 mps 756 mmHg 59%
    09:00 +30°C° 0 mm 5 mps 756 mmHg 54%
    10:00 +33°C° 0 mm 5 mps 756 mmHg 48%
    11:00 +34°C° 0 mm 5 mps 756 mmHg 43%
    12:00 +36°C° 0 mm 5 mps 755 mmHg 39%
    13:00 +37°C° 0 mm 5 mps 754 mmHg 36%
    14:00 +39°C° 0 mm 5 mps 752 mmHg 32%
    15:00 +39°C° 0 mm 5 mps 752 mmHg 31%
    16:00 +39°C° 0 mm 5 mps 751 mmHg 29%
    17:00 +39°C° 0 mm 5 mps 750 mmHg 28%
    18:00 +37°C° 0 mm 4 mps 751 mmHg 29%
    19:00 +35°C° 0 mm 3 mps 751 mmHg 31%
    20:00 +34°C° 0 mm 2 mps 752 mmHg 32%
    21:00 +33°C° 0 mm 3 mps 753 mmHg 33%
    22:00 +33°C° 0 mm 4 mps 753 mmHg 35%
    23:00 +33°C° 0 mm 5 mps 754 mmHg 36%

    24 February, Sunday

    Time Temperature Precipitation Wind Pressure Humidity
    00:00 +32°C° 0 mm 4 mps 754 mmHg 43%
    01:00 +30°C° 0 mm 4 mps 754 mmHg 50%
    02:00 +29°C° 0 mm 4 mps 753 mmHg 57%
    03:00 +29°C° 0 mm 4 mps 753 mmHg 59%
    04:00 +28°C° 0 mm 3 mps 753 mmHg 62%
    05:00 +28°C° 0 mm 3 mps 753 mmHg 64%
    06:00 +28°C° 0 mm 4 mps 754 mmHg 62%
    07:00 +28°C° 0 mm 5 mps 755 mmHg 59%
    08:00 +28°C° 0 mm 5 mps 756 mmHg 56%
    09:00 +30°C° 0 mm 5 mps 756 mmHg 51%
    10:00 +33°C° 0 mm 5 mps 756 mmHg 45%
    11:00 +34°C° 0 mm 6 mps 756 mmHg 39%
    12:00 +36°C° 0 mm 6 mps 755 mmHg 35%
    13:00 +37°C° 0 mm 5 mps 753 mmHg 31%
    14:00 +40°C° 0 mm 5 mps 752 mmHg 26%
    15:00 +40°C° 0 mm 5 mps 751 mmHg 25%
    16:00 +40°C° 0 mm 5 mps 751 mmHg 25%
    17:00 +40°C° 0 mm 5 mps 750 mmHg 24%
    18:00 +37°C° 0 mm 4 mps 750 mmHg 27%
    19:00 +35°C° 0 mm 3 mps 751 mmHg 29%
    20:00 +32°C° 0 mm 2 mps 751 mmHg 32%
    21:00 +32°C° 0 mm 2 mps 752 mmHg 38%
    22:00 +31°C° 0 mm 3 mps 753 mmHg 43%
    23:00 +30°C° 0 mm 4 mps 753 mmHg 49%

    25 February, Monday

    Time Temperature Precipitation Wind Pressure Humidity
    00:00 +30°C° 0 mm 4 mps 753 mmHg 54%
    01:00 +29°C° 0 mm 3 mps 753 mmHg 59%
    02:00 +28°C° 0 mm 3 mps 753 mmHg 63%
    03:00 +28°C° 0 mm 3 mps 753 mmHg 65%
    04:00 +28°C° 0 mm 3 mps 753 mmHg 66%
    05:00 +28°C° 0 mm 4 mps 753 mmHg 67%
    06:00 +28°C° 0 mm 4 mps 754 mmHg 65%
    07:00 +28°C° 0 mm 4 mps 754 mmHg 64%
    08:00 +28°C° 0 mm 5 mps 755 mmHg 62%
    09:00 +30°C° 0 mm 5 mps 755 mmHg 55%
    10:00 +33°C° 0 mm 5 mps 755 mmHg 47%
    11:00 +35°C° 0 mm 5 mps 755 mmHg 40%
    12:00 +36°C° 0 mm 5 mps 754 mmHg 36%
    13:00 +39°C° 0 mm 5 mps 753 mmHg 32%
    14:00 +40°C° 0 mm 5 mps 752 mmHg 28%
    15:00 +40°C° 0 mm 5 mps 751 mmHg 28%
    16:00 +40°C° 0 mm 5 mps 751 mmHg 29%
    17:00 +39°C° 0 mm 5 mps 750 mmHg 29%
    18:00 +37°C° 0 mm 5 mps 751 mmHg 33%
    19:00 +35°C° 0 mm 4 mps 751 mmHg 37%
    20:00 +34°C° 0 mm 3 mps 752 mmHg 41%
    21:00 +33°C° 0 mm 4 mps 752 mmHg 44%
    22:00 +32°C° 0 mm 4 mps 753 mmHg 47%
    23:00 +32°C° 0 mm 5 mps 754 mmHg 51%

    26 February, Tuesday

    Time Temperature Precipitation Wind Pressure Humidity
    00:00 +30°C° 0 mm 5 mps 754 mmHg 54%
    01:00 +29°C° 0 mm 4 mps 754 mmHg 58%
    02:00 +28°C° 0 mm 4 mps 754 mmHg 61%
    03:00 +28°C° 0 mm 4 mps 754 mmHg 63%
    04:00 +28°C° 0 mm 3 mps 754 mmHg 65%
    05:00 +27°C° 0 mm 3 mps 754 mmHg 67%
    06:00 +28°C° 0 mm 4 mps 755 mmHg 65%
    07:00 +28°C° 0 mm 4 mps 755 mmHg 63%
    08:00 +28°C° 0 mm 5 mps 756 mmHg 60%
    09:00 +30°C° 0 mm 5 mps 756 mmHg 53%
    10:00 +33°C° 0 mm 5 mps 756 mmHg 45%
    11:00 +35°C° 0 mm 6 mps 755 mmHg 37%
    12:00 +36°C° 0 mm 6 mps 754 mmHg 32%
    13:00 +39°C° 0 mm 5 mps 753 mmHg 28%
    14:00 +40°C° 0 mm 5 mps 752 mmHg 23%
    15:00 +40°C° 0 mm 5 mps 752 mmHg 23%
    16:00 +40°C° 0 mm 5 mps 751 mmHg 22%
    17:00 +40°C° 0 mm 5 mps 750 mmHg 21%
    18:00 +37°C° 0 mm 4 mps 751 mmHg 23%
    19:00 +35°C° 0 mm 3 mps 752 mmHg 26%
    20:00 +32°C° 0 mm 2 mps 752 mmHg 28%
    21:00 +32°C° 0 mm 2 mps 753 mmHg 29%
    22:00 +33°C° 0 mm 3 mps 753 mmHg 31%
    23:00 +33°C° 0 mm 3 mps 754 mmHg 33%
    Show more